Terminal Aerodrome Forecast
Issued by NWS

Home | Current Version | Previous Version | Text Only | Print | Product List | Glossary On
Versions: 1 2 3 4 5 6 7 8 9 10 11 12 13 14 15 16 17 18 19 20 21 22 23 24
000
FTPA31 PHFO 161700
TAFJRF
TAF
PHJR 161738Z 1618/1718 VRB03KT P6SM FEW030
     FM162100 16008KT P6SM SCT030 BKN050
     FM170400 VRB05KT P6SM SCT050=

USA.gov is the U.S. government's official web portal to all federal, state and local government web resources and services.